Weather History for Zanesville, OH

Change the Weather History Date:

Wednesday, September 18, 2013

  Actual Average Record
Temperature  
Mean Temperature 60 °F 64 °F  
Max Temperature 70 °F 75 °F 94 °F (1955)
Min Temperature 50 °F 52 °F 30 °F (1959)
Degree Days  
Heating Degree Days 5 3  
Month to date heating degree days 41 32  
Since 1 July heating degree days 50 43  
Cooling Degree Days 0 2  
Month to date cooling degree days 78 63  
Year to date cooling degree days 811 740  
Growing Degree Days 10 (Base 50)    
Moisture  
Dew Point 55 °F    
Average Humidity 78    
Maximum Humidity 93    
Minimum Humidity 63    
Precipitation  
Precipitation 0.00 in 0.10 in 0.95 in (1975)
Month to date precipitation 0.32 1.80  
Year to date precipitation 28.33 28.32  
Sea Level Pressure  
Sea Level Pressure 30.16 in    
Wind  
Wind Speed 4 mph (South)    
Max Wind Speed 12 mph    
Max Gust Speed 14 mph    
Visibility 9 miles    
Events      
T = Trace of Precipitation, MM = Missing Value Source: NWS Daily Summary

Daily Weather History Graph

Daily Weather History Graph

Search for Another Location

Airport:

Trip Planner

Search our weather history database for the weather conditions in past years. The results will help you decide how hot, cold, wet, or windy it might be!

Date:

Astronomy

Sep. 18, 2013 Rise Set
Actual Time 7:11 AM EDT 7:30 PM EDT
Civil Twilight 6:44 AM EDT 7:57 PM EDT
Nautical Twilight 6:12 AM EDT 8:29 PM EDT
Astronomical Twilight 5:40 AM EDT 9:02 PM EDT
Moon 6:53 PM EDT (9/18) 6:12 AM EDT (9/18)
Length of Visible Light 13h 13m
Length of Day
12h 19m
Waxing Gibbous, 99% of the Moon is Illuminated
Sep 18
Waxing Gibbous
Sep 19
Full
Sep 26
Last Quarter
Oct 4
New
Oct 11
First Quarter

Hourly Weather History & Observations

Time (EDT) Temp. Dew Point Humidity Pressure Visibility Wind Dir Wind Speed Gust Speed Precip Events Conditions
12:53 AM 53.1 °F 48.9 °F 86% 30.22 in 9.0 mi Calm Calm - N/A   Clear
1:53 AM 52.0 °F 48.9 °F 89% 30.21 in 9.0 mi Calm Calm - N/A   Clear
2:53 AM 51.1 °F 48.0 °F 89% 30.21 in 10.0 mi Calm Calm - N/A   Clear
3:53 AM 50.0 °F 48.0 °F 93% 30.20 in 10.0 mi Calm Calm - N/A   Clear
4:53 AM 51.1 °F 48.0 °F 89% 30.19 in 10.0 mi Calm Calm - N/A   Clear
5:53 AM 51.1 °F 46.9 °F 86% 30.19 in 10.0 mi Calm Calm - N/A   Clear
6:53 AM 51.1 °F 46.9 °F 86% 30.20 in 10.0 mi Calm Calm - N/A   Clear
7:53 AM 54.0 °F 48.9 °F 83% 30.21 in 10.0 mi Calm Calm - N/A   Partly Cloudy
8:53 AM 55.9 °F 51.1 °F 84% 30.21 in 10.0 mi Calm Calm - N/A   Clear
9:53 AM 60.1 °F 53.1 °F 78% 30.21 in 10.0 mi SE 6.9 mph - N/A   Clear
10:53 AM 62.1 °F 52.0 °F 70% 30.21 in 10.0 mi SSE 8.1 mph - N/A   Scattered Clouds
11:53 AM 63.0 °F 54.0 °F 72% 30.20 in 10.0 mi SSE 5.8 mph - N/A   Clear
12:53 PM 64.9 °F 55.0 °F 70% 30.19 in 10.0 mi SSE 4.6 mph - N/A   Mostly Cloudy
1:53 PM 68.0 °F 55.9 °F 65% 30.17 in 10.0 mi Variable 3.5 mph - N/A   Scattered Clouds
2:36 PM 68.0 °F 57.2 °F 68% 30.16 in 10.0 mi South 4.6 mph - N/A   Mostly Cloudy
2:53 PM 69.1 °F 57.9 °F 68% 30.15 in 10.0 mi South 5.8 mph - N/A   Scattered Clouds
3:53 PM 68.0 °F 57.9 °F 70% 30.13 in 10.0 mi South 10.4 mph - N/A   Partly Cloudy
4:53 PM 66.9 °F 57.9 °F 73% 30.13 in 10.0 mi South 9.2 mph - N/A   Overcast
5:53 PM 68.0 °F 59.0 °F 73% 30.12 in 10.0 mi SSE 8.1 mph - N/A   Scattered Clouds
6:09 PM 66.2 °F 59.0 °F 78% 30.12 in 10.0 mi SSE 9.2 mph - N/A   Mostly Cloudy
6:53 PM 66.0 °F 59.0 °F 78% 30.12 in 10.0 mi South 6.9 mph - N/A   Overcast
7:05 PM 66.2 °F 59.0 °F 78% 30.11 in 10.0 mi SSE 6.9 mph - N/A   Overcast
7:53 PM 66.0 °F 60.1 °F 81% 30.11 in 10.0 mi South 8.1 mph - N/A   Overcast
8:53 PM 66.0 °F 60.1 °F 81% 30.13 in 9.0 mi South 4.6 mph - N/A   Overcast
9:53 PM 64.9 °F 61.0 °F 87% 30.13 in 7.0 mi South 8.1 mph - N/A   Overcast
10:33 PM 64.4 °F 60.8 °F 88% 30.14 in 5.0 mi South 4.6 mph - N/A   Overcast
10:53 PM 64.0 °F 61.0 °F 90% 30.13 in 6.0 mi South 3.5 mph - N/A   Overcast
11:00 PM 64.4 °F 60.8 °F 88% 30.14 in 6.0 mi SSE 4.6 mph - N/A   Overcast
11:16 PM 62.6 °F 60.8 °F 94% 30.13 in 6.0 mi SE 3.5 mph - N/A   Mostly Cloudy
11:44 PM 62.6 °F 60.8 °F 94% 30.14 in 4.0 mi SSW 3.5 mph - N/A   Overcast
11:53 PM 63.0 °F 61.0 °F 93% 30.13 in 4.0 mi South 4.6 mph - N/A   Overcast